Time,TemperatureF,DewpointF,PressureIn,WindDirection,WindDirectionDegrees,WindSpeedMPH,WindSpeedGustMPH,Humidity,HourlyPrecipIn,Conditions,Clouds,dailyrainin,SoftwareType,DateUTC
2013-04-15 00:03:00,52.0,36.0,30.13,SSE,161,6.0,-999.0,54,-99.99,,,-99.99,,2013-04-15 04:03:00,
2013-04-15 00:13:00,52.0,36.0,30.13,SSE,161,6.0,-999.0,54,-99.99,,,-99.99,,2013-04-15 04:13:00,
2013-04-15 00:23:00,52.0,35.0,30.14,SSE,161,4.0,-999.0,53,-99.99,,,-99.99,,2013-04-15 04:23:00,
2013-04-15 00:33:00,52.0,35.0,30.14,SSE,161,5.0,-999.0,52,-99.99,,,-99.99,,2013-04-15 04:33:00,
2013-04-15 00:43:00,52.0,35.0,30.14,SSE,161,5.0,-999.0,52,-99.99,,,-99.99,,2013-04-15 04:43:00,
2013-04-15 00:52:00,52.0,36.0,30.14,SSE,161,5.0,-999.0,54,-99.99,,,-99.99,,2013-04-15 04:52:00,
2013-04-15 01:03:00,52.0,35.0,30.14,SSE,161,5.0,-999.0,53,-99.99,,,-99.99,,2013-04-15 05:03:00,
2013-04-15 01:13:00,52.0,35.0,30.14,SSE,161,5.0,-999.0,53,-99.99,,,-99.99,,2013-04-15 05:13:00,
2013-04-15 01:23:00,51.0,36.0,30.15,SSE,161,4.0,-999.0,56,-99.99,,,-99.99,,2013-04-15 05:23:00,
2013-04-15 01:33:00,51.0,36.0,30.16,SSE,161,6.0,-999.0,57,-99.99,,,-99.99,,2013-04-15 05:33:00,
2013-04-15 01:42:00,51.0,36.0,30.16,SSE,161,6.0,-999.0,57,-99.99,,,-99.99,,2013-04-15 05:42:00,
2013-04-15 01:52:00,51.0,36.0,30.16,SSE,157,7.0,-999.0,56,-99.99,,,-99.99,,2013-04-15 05:52:00,
2013-04-15 02:02:00,51.0,37.0,30.17,SSE,155,6.0,-999.0,58,-99.99,,,-99.99,,2013-04-15 06:02:00,
2013-04-15 02:12:00,51.0,37.0,30.17,SSE,155,6.0,-999.0,58,-99.99,,,-99.99,,2013-04-15 06:12:00,
2013-04-15 02:23:00,51.0,37.0,30.17,SSE,154,6.0,-999.0,59,-99.99,,,-99.99,,2013-04-15 06:23:00,
2013-04-15 02:33:00,51.0,37.0,30.18,SSE,154,5.0,-999.0,59,-99.99,,,-99.99,,2013-04-15 06:33:00,
2013-04-15 02:39:00,50.0,38.0,30.18,ESE,107,6.0,-999.0,62,-99.99,,,-99.99,,2013-04-15 06:39:00,
2013-04-15 02:42:00,51.0,37.0,30.18,SSE,154,5.0,-999.0,59,-99.99,,,-99.99,,2013-04-15 06:42:00,
2013-04-15 02:52:00,51.0,38.0,30.18,SSE,154,5.0,-999.0,61,-99.99,,,-99.99,,2013-04-15 06:52:00,
2013-04-15 03:03:00,50.0,38.0,30.18,ESE,107,6.0,-999.0,62,-99.99,,,-99.99,,2013-04-15 07:03:00,
2013-04-15 03:42:00,50.0,38.0,30.19,East,84,7.0,-999.0,64,-99.99,,,-99.99,,2013-04-15 07:42:00,
2013-04-15 03:53:00,49.0,39.0,30.19,East,81,7.0,-999.0,67,-99.99,,,-99.99,,2013-04-15 07:53:00,
2013-04-15 04:03:00,48.0,38.0,30.20,East,83,7.0,-999.0,68,-99.99,,,-99.99,,2013-04-15 08:03:00,
2013-04-15 04:14:00,48.0,38.0,30.20,East,83,7.0,-999.0,68,-99.99,,,-99.99,,2013-04-15 08:14:00,
2013-04-15 04:22:00,48.0,38.0,30.20,East,90,9.0,-999.0,68,-99.99,,,-99.99,,2013-04-15 08:22:00,
2013-04-15 04:34:00,48.0,37.0,30.20,East,80,10.0,-999.0,65,-99.99,,,-99.99,,2013-04-15 08:34:00,
2013-04-15 04:43:00,48.0,37.0,30.20,East,80,10.0,-999.0,65,-99.99,,,-99.99,,2013-04-15 08:43:00,
2013-04-15 04:52:00,48.0,36.0,30.21,East,97,10.0,-999.0,64,-99.99,,,-99.99,,2013-04-15 08:52:00,
2013-04-15 05:03:00,48.0,36.0,30.22,ESE,107,11.0,-999.0,63,-99.99,,,-99.99,,2013-04-15 09:03:00,
2013-04-15 05:12:00,48.0,36.0,30.22,ESE,107,11.0,-999.0,63,-99.99,,,-99.99,,2013-04-15 09:12:00,
2013-04-15 05:23:00,48.0,36.0,30.22,ESE,105,11.0,-999.0,62,-99.99,,,-99.99,,2013-04-15 09:23:00,
2013-04-15 05:33:00,48.0,35.0,30.23,ESE,113,12.0,-999.0,60,-99.99,,,-99.99,,2013-04-15 09:33:00,
2013-04-15 05:43:00,48.0,35.0,30.23,ESE,113,12.0,-999.0,60,-99.99,,,-99.99,,2013-04-15 09:43:00,
2013-04-15 05:53:00,48.0,35.0,30.23,ESE,115,9.0,-999.0,60,-99.99,,,-99.99,,2013-04-15 09:53:00,
2013-04-15 06:03:00,48.0,35.0,30.23,East,96,8.0,-999.0,60,-99.99,,,-99.99,,2013-04-15 10:03:00,
2013-04-15 06:13:00,48.0,35.0,30.23,East,96,8.0,-999.0,60,-99.99,,,-99.99,,2013-04-15 10:13:00,
2013-04-15 06:23:00,47.0,34.0,30.23,ESE,103,9.0,-999.0,60,-99.99,,,-99.99,,2013-04-15 10:23:00,
2013-04-15 06:33:00,47.0,34.0,30.23,ESE,103,11.0,-999.0,60,-99.99,,,-99.99,,2013-04-15 10:33:00,
2013-04-15 06:42:00,47.0,34.0,30.23,ESE,103,11.0,-999.0,60,-99.99,,,-99.99,,2013-04-15 10:42:00,
2013-04-15 06:52:00,47.0,34.0,30.24,ESE,105,11.0,-999.0,60,-99.99,,,-99.99,,2013-04-15 10:52:00,
2013-04-15 07:03:00,47.0,34.0,30.25,ESE,107,11.0,-999.0,60,-99.99,,,-99.99,,2013-04-15 11:03:00,
2013-04-15 07:13:00,47.0,34.0,30.25,ESE,107,11.0,-999.0,60,-99.99,,,-99.99,,2013-04-15 11:13:00,
2013-04-15 07:23:00,47.0,34.0,30.25,ESE,103,11.0,-999.0,61,-99.99,,,-99.99,,2013-04-15 11:23:00,
2013-04-15 07:33:00,47.0,35.0,30.26,East,92,9.0,-999.0,62,-99.99,,,-99.99,,2013-04-15 11:33:00,
2013-04-15 07:43:00,47.0,35.0,30.26,East,92,9.0,-999.0,62,-99.99,,,-99.99,,2013-04-15 11:43:00,
2013-04-15 07:53:00,47.0,35.0,30.27,ESE,104,10.0,-999.0,63,-99.99,,,-99.99,,2013-04-15 11:53:00,
2013-04-15 08:05:00,47.0,35.0,30.27,East,96,11.0,-999.0,63,-99.99,,,-99.99,,2013-04-15 12:05:00,
2013-04-15 08:14:00,47.0,35.0,30.27,East,96,11.0,-999.0,63,-99.99,,,-99.99,,2013-04-15 12:14:00,
2013-04-15 08:23:00,47.0,36.0,30.28,East,98,8.0,-999.0,65,-99.99,,,-99.99,,2013-04-15 12:23:00,
2013-04-15 08:34:00,47.0,36.0,30.29,East,94,10.0,-999.0,66,-99.99,,,-99.99,,2013-04-15 12:34:00,
2013-04-15 08:43:00,47.0,36.0,30.29,East,94,10.0,-999.0,66,-99.99,,,-99.99,,2013-04-15 12:43:00,
2013-04-15 08:53:00,46.0,37.0,30.28,ENE,78,10.0,-999.0,70,-99.99,,,-99.99,,2013-04-15 12:53:00,
2013-04-15 09:05:00,46.0,38.0,30.29,ENE,65,9.0,-999.0,73,-99.99,,,-99.99,,2013-04-15 13:05:00,
2013-04-15 09:13:00,46.0,38.0,30.29,ENE,65,9.0,-999.0,73,-99.99,,,-99.99,,2013-04-15 13:13:00,
2013-04-15 09:23:00,46.0,39.0,30.28,East,82,8.0,-999.0,75,-99.99,,,-99.99,,2013-04-15 13:23:00,
2013-04-15 09:34:00,46.0,38.0,30.28,ENE,76,10.0,-999.0,74,-99.99,,,-99.99,,2013-04-15 13:34:00,
2013-04-15 09:43:00,46.0,38.0,30.28,ENE,76,10.0,-999.0,74,-99.99,,,-99.99,,2013-04-15 13:43:00,
2013-04-15 09:53:00,47.0,40.0,30.27,ENE,76,10.0,-999.0,76,-99.99,,,-99.99,,2013-04-15 13:53:00,
2013-04-15 10:05:00,47.0,40.0,30.27,ENE,65,13.0,-999.0,76,-99.99,,,-99.99,,2013-04-15 14:05:00,
2013-04-15 10:13:00,47.0,40.0,30.27,ENE,65,13.0,-999.0,76,-99.99,,,-99.99,,2013-04-15 14:13:00,
2013-04-15 10:23:00,47.0,39.0,30.27,ENE,76,12.0,-999.0,75,-99.99,,,-99.99,,2013-04-15 14:23:00,
2013-04-15 10:34:00,47.0,39.0,30.27,East,85,12.0,-999.0,74,-99.99,,,-99.99,,2013-04-15 14:34:00,
2013-04-15 10:44:00,47.0,39.0,30.27,East,85,12.0,-999.0,74,-99.99,,,-99.99,,2013-04-15 14:44:00,
2013-04-15 10:54:00,48.0,40.0,30.27,East,87,14.0,-999.0,73,-99.99,,,-99.99,,2013-04-15 14:54:00,
2013-04-15 11:04:00,48.0,40.0,30.27,NE,56,11.0,-999.0,74,-99.99,,,-99.99,,2013-04-15 15:04:00,
2013-04-15 11:13:00,48.0,40.0,30.27,NE,56,11.0,-999.0,74,-99.99,,,-99.99,,2013-04-15 15:13:00,
2013-04-15 11:24:00,48.0,40.0,30.28,East,91,9.0,-999.0,73,-99.99,,,-99.99,,2013-04-15 15:24:00,
2013-04-15 11:35:00,49.0,41.0,30.28,ESE,107,9.0,-999.0,75,-99.99,,,-99.99,,2013-04-15 15:35:00,
2013-04-15 11:44:00,49.0,41.0,30.28,ESE,107,9.0,-999.0,75,-99.99,,,-99.99,,2013-04-15 15:44:00,
2013-04-15 11:54:00,50.0,41.0,30.28,ESE,107,11.0,-999.0,71,-99.99,,,-99.99,,2013-04-15 15:54:00,
2013-04-15 12:05:00,51.0,42.0,30.28,East,90,10.0,-999.0,70,-99.99,,,-99.99,,2013-04-15 16:05:00,
2013-04-15 12:14:00,51.0,42.0,30.28,East,90,10.0,-999.0,70,-99.99,,,-99.99,,2013-04-15 16:14:00,
2013-04-15 12:25:00,52.0,42.0,30.28,East,101,11.0,-999.0,68,-99.99,,,-99.99,,2013-04-15 16:25:00,
2013-04-15 12:34:00,53.0,43.0,30.28,ESE,118,10.0,-999.0,68,-99.99,,,-99.99,,2013-04-15 16:34:00,
2013-04-15 12:44:00,53.0,43.0,30.28,ESE,118,10.0,-999.0,68,-99.99,,,-99.99,,2013-04-15 16:44:00,
2013-04-15 12:53:00,54.0,43.0,30.28,ESE,113,12.0,-999.0,66,-99.99,,,-99.99,,2013-04-15 16:53:00,
2013-04-15 13:04:00,55.0,44.0,30.28,East,92,9.0,-999.0,66,-99.99,,,-99.99,,2013-04-15 17:04:00,
2013-04-15 13:15:00,55.0,44.0,30.28,East,92,9.0,-999.0,66,-99.99,,,-99.99,,2013-04-15 17:15:00,
2013-04-15 13:22:00,55.0,43.0,30.27,ENE,58,9.0,-999.0,65,-99.99,,,-99.99,,2013-04-15 17:22:00,
2013-04-15 13:33:00,56.0,44.0,30.26,ENE,76,10.0,-999.0,64,-99.99,,,-99.99,,2013-04-15 17:33:00,
2013-04-15 13:43:00,56.0,44.0,30.26,ENE,76,10.0,-999.0,64,-99.99,,,-99.99,,2013-04-15 17:43:00,
2013-04-15 13:52:00,57.0,45.0,30.27,ESE,110,9.0,-999.0,63,-99.99,,,-99.99,,2013-04-15 17:52:00,
2013-04-15 14:04:00,57.0,44.0,30.26,SE,130,12.0,-999.0,61,-99.99,,,-99.99,,2013-04-15 18:04:00,
2013-04-15 14:13:00,57.0,44.0,30.26,SE,130,12.0,-999.0,61,-99.99,,,-99.99,,2013-04-15 18:13:00,
2013-04-15 14:24:00,57.0,45.0,30.26,SE,137,13.0,-999.0,63,-99.99,,,-99.99,,2013-04-15 18:24:00,
2013-04-15 14:33:00,58.0,45.0,30.26,ESE,119,12.0,-999.0,61,-99.99,,,-99.99,,2013-04-15 18:33:00,
2013-04-15 14:42:00,58.0,45.0,30.26,ESE,119,12.0,-999.0,61,-99.99,,,-99.99,,2013-04-15 18:42:00,
2013-04-15 14:52:00,57.0,45.0,30.26,ESE,119,13.0,-999.0,64,-99.99,,,-99.99,,2013-04-15 18:52:00,
2013-04-15 15:02:00,57.0,45.0,30.27,ESE,120,12.0,-999.0,65,-99.99,,,-99.99,,2013-04-15 19:02:00,
2013-04-15 15:12:00,57.0,45.0,30.27,ESE,120,12.0,-999.0,65,-99.99,,,-99.99,,2013-04-15 19:12:00,
2013-04-15 15:22:00,56.0,45.0,30.27,SE,124,11.0,-999.0,66,-99.99,,,-99.99,,2013-04-15 19:22:00,
2013-04-15 15:38:00,56.0,45.0,30.27,SE,134,13.0,-999.0,66,-99.99,,,-99.99,,2013-04-15 19:38:00,
2013-04-15 15:54:00,56.0,45.0,30.27,SE,134,13.0,-999.0,66,-99.99,,,-99.99,,2013-04-15 19:54:00,
2013-04-15 16:02:00,56.0,46.0,30.27,SE,134,14.0,-999.0,69,-99.99,,,-99.99,,2013-04-15 20:02:00,
2013-04-15 16:12:00,56.0,46.0,30.27,SE,134,14.0,-999.0,69,-99.99,,,-99.99,,2013-04-15 20:12:00,
2013-04-15 16:22:00,55.0,46.0,30.26,East,99,10.0,-999.0,71,-99.99,,,-99.99,,2013-04-15 20:22:00,
2013-04-15 16:32:00,56.0,47.0,30.26,ESE,121,11.0,-999.0,71,-99.99,,,-99.99,,2013-04-15 20:32:00,
2013-04-15 16:42:00,56.0,47.0,30.26,ESE,121,11.0,-999.0,71,-99.99,,,-99.99,,2013-04-15 20:42:00,
2013-04-15 16:52:00,56.0,47.0,30.25,ESE,107,9.0,-999.0,71,-99.99,,,-99.99,,2013-04-15 20:52:00,
2013-04-15 17:02:00,57.0,47.0,30.25,SE,131,11.0,-999.0,68,-99.99,,,-99.99,,2013-04-15 21:02:00,
2013-04-15 17:12:00,57.0,47.0,30.25,SE,131,11.0,-999.0,68,-99.99,,,-99.99,,2013-04-15 21:12:00,
2013-04-15 17:22:00,56.0,46.0,30.26,ESE,112,11.0,-999.0,68,-99.99,,,-99.99,,2013-04-15 21:22:00,
2013-04-15 17:33:00,56.0,46.0,30.26,SE,142,10.0,-999.0,69,-99.99,,,-99.99,,2013-04-15 21:33:00,
2013-04-15 17:43:00,56.0,46.0,30.26,SE,142,10.0,-999.0,69,-99.99,,,-99.99,,2013-04-15 21:43:00,
2013-04-15 17:53:00,55.0,45.0,30.27,SE,130,15.0,-999.0,69,-99.99,,,-99.99,,2013-04-15 21:53:00,
2013-04-15 18:02:00,53.0,44.0,30.27,SE,141,15.0,-999.0,71,-99.99,,,-99.99,,2013-04-15 22:02:00,
2013-04-15 18:13:00,53.0,44.0,30.27,SE,141,15.0,-999.0,71,-99.99,,,-99.99,,2013-04-15 22:13:00,
2013-04-15 18:23:00,53.0,45.0,30.27,ESE,117,12.0,-999.0,73,-99.99,,,-99.99,,2013-04-15 22:23:00,
2013-04-15 18:33:00,53.0,45.0,30.27,ESE,120,13.0,-999.0,73,-99.99,,,-99.99,,2013-04-15 22:33:00,
2013-04-15 18:42:00,53.0,45.0,30.27,ESE,120,13.0,-999.0,73,-99.99,,,-99.99,,2013-04-15 22:42:00,
2013-04-15 18:52:00,53.0,45.0,30.27,ESE,119,13.0,-999.0,74,-99.99,,,-99.99,,2013-04-15 22:52:00,
2013-04-15 19:02:00,53.0,45.0,30.28,ESE,121,12.0,-999.0,75,-99.99,,,-99.99,,2013-04-15 23:02:00,
2013-04-15 19:12:00,53.0,45.0,30.28,ESE,121,12.0,-999.0,75,-99.99,,,-99.99,,2013-04-15 23:12:00,
2013-04-15 19:22:00,52.0,45.0,30.28,SE,132,9.0,-999.0,77,-99.99,,,-99.99,,2013-04-15 23:22:00,
2013-04-15 19:32:00,52.0,45.0,30.28,SE,132,9.0,-999.0,77,-99.99,,,-99.99,,2013-04-15 23:32:00,
2013-04-15 19:42:00,52.0,45.0,30.28,SE,132,9.0,-999.0,77,-99.99,,,-99.99,,2013-04-15 23:42:00,
2013-04-15 19:52:00,52.0,45.0,30.29,SE,137,11.0,-999.0,76,-99.99,,,-99.99,,2013-04-15 23:52:00,
2013-04-15 20:03:00,52.0,45.0,30.29,SE,126,12.0,-999.0,78,-99.99,,,-99.99,,2013-04-16 00:03:00,
2013-04-15 20:12:00,52.0,45.0,30.29,SE,126,12.0,-999.0,78,-99.99,,,-99.99,,2013-04-16 00:12:00,
2013-04-15 20:22:00,52.0,46.0,30.29,SE,132,11.0,-999.0,79,-99.99,,,-99.99,,2013-04-16 00:22:00,
2013-04-15 20:32:00,52.0,46.0,30.29,SE,125,9.0,-999.0,80,-99.99,,,-99.99,,2013-04-16 00:32:00,
2013-04-15 20:42:00,52.0,46.0,30.29,SE,125,9.0,-999.0,80,-99.99,,,-99.99,,2013-04-16 00:42:00,
2013-04-15 20:52:00,51.0,45.0,30.29,ESE,116,10.0,-999.0,80,-99.99,,,-99.99,,2013-04-16 00:52:00,
2013-04-15 21:02:00,51.0,45.0,30.29,ESE,114,13.0,-999.0,79,-99.99,,,-99.99,,2013-04-16 01:02:00,
2013-04-15 21:12:00,51.0,45.0,30.29,ESE,114,13.0,-999.0,79,-99.99,,,-99.99,,2013-04-16 01:12:00,
2013-04-15 21:22:00,51.0,45.0,30.29,SE,126,11.0,-999.0,79,-99.99,,,-99.99,,2013-04-16 01:22:00,
2013-04-15 21:32:00,51.0,45.0,30.29,ESE,114,12.0,-999.0,79,-99.99,,,-99.99,,2013-04-16 01:32:00,
2013-04-15 21:42:00,51.0,45.0,30.29,ESE,114,12.0,-999.0,79,-99.99,,,-99.99,,2013-04-16 01:42:00,
2013-04-15 21:52:00,51.0,45.0,30.30,SE,130,12.0,-999.0,80,-99.99,,,-99.99,,2013-04-16 01:52:00,
2013-04-15 22:02:00,51.0,45.0,30.30,ESE,109,12.0,-999.0,80,-99.99,,,-99.99,,2013-04-16 02:02:00,
2013-04-15 22:12:00,51.0,45.0,30.30,ESE,109,12.0,-999.0,80,-99.99,,,-99.99,,2013-04-16 02:12:00,
2013-04-15 22:22:00,51.0,45.0,30.31,SE,127,11.0,-999.0,81,-99.99,,,-99.99,,2013-04-16 02:22:00,
2013-04-15 22:32:00,51.0,45.0,30.31,ESE,115,12.0,-999.0,81,-99.99,,,-99.99,,2013-04-16 02:32:00,
2013-04-15 22:42:00,51.0,45.0,30.31,ESE,115,12.0,-999.0,81,-99.99,,,-99.99,,2013-04-16 02:42:00,
2013-04-15 22:52:00,51.0,45.0,30.31,ESE,112,12.0,-999.0,81,-99.99,,,-99.99,,2013-04-16 02:52:00,
2013-04-15 23:02:00,51.0,46.0,30.31,ESE,106,11.0,-999.0,82,-99.99,,,-99.99,,2013-04-16 03:02:00,
2013-04-15 23:12:00,51.0,46.0,30.31,ESE,106,11.0,-999.0,82,-99.99,,,-99.99,,2013-04-16 03:12:00,
2013-04-15 23:22:00,51.0,46.0,30.31,ESE,109,10.0,-999.0,83,-99.99,,,-99.99,,2013-04-16 03:22:00,
2013-04-15 23:33:00,50.0,45.0,30.31,ESE,109,8.0,-999.0,83,-99.99,,,-99.99,,2013-04-16 03:33:00,
2013-04-15 23:43:00,50.0,45.0,30.31,ESE,109,8.0,-999.0,83,-99.99,,,-99.99,,2013-04-16 03:43:00,
2013-04-15 23:52:00,50.0,45.0,30.31,ESE,109,9.0,-999.0,83,-99.99,,,-99.99,,2013-04-16 03:52:00,